Starlink 30853

operational
NORAD ID: 58236 Int'l Des: 2023-171 Owner: SPXS Country: US Constellation: starlink
LEOCIRCULAR

Starlink 30853について

説明を読み込み中...

リアルタイム位置

3D地球を読み込み中...

次回通過

高度履歴

Altitude vs Time

uPlot chart will show altitude changes over time

軌道要素

1 58236U 23171G 25257.93072469 .00000076 00000-0 20721-4 0 9998
2 58236 43.0028 161.2865 0001137 264.8501 95.2211 15.02534759103285
Epoch: Sep 14, 2025 • Age: 30 hours

現在のステータス

高度 566.2 km
速度 7.58 km/s
衛星直下点 -28.90°S, 45.52°W
打ち上げ日 Nov 8, 2023
運用期間 1.8 years
タイプ internet

技術仕様

分類 Payload
質量 730.00 kg
乾燥質量 700.00 kg
総質量 730.00 kg
長さ 0.30 m
直径 4.10 m
スパン 29.00 m
形状 Box + pan
製造者 SPXS
バスタイプ Starlink V2M
フェーズステータス In Orbit
所有者/国 SPXS/US

大規模コンステレーション

Loading constellations...